Flag for U.S.A. Weather past 2 weeks in Fayetteville, North Carolina, U.S.A.

Now
78 °F

Light rain. Fog.


Feels Like: 81 °F
Forecast: 69 / 85 °F
Wind: 5 mph from West

Location: Fayetteville Regional Airport

Current Time: Jul 3, 2015 at 6:25:24 PM

Latest Report: Jul 3, 2015 at 4:53 PM


Visibility: 4 mi

Pressure: 29.88 "Hg

Humidity: 90%

Dew point: 75 °F

Location of FayettevilleLocation

Historic Weather in Fayetteville — Graph

°F

Fayetteville temperature yesterday

Maximum temperature yesterday: 90 °F (at 3:53 PM)
Minimum temperature yesterday: 73 °F (at 11:53 PM)
Average temperature yesterday: 80 °F

Past Weeks' High & Low Weather Summary

 TemperatureHumidityPressure
High96 °F (Jun 22, 3:53 PM)97% (Jun 19, 2:53 AM)30.07 "Hg (Jun 19, 2:53 AM)
Low66 °F (Jun 29, 3:53 AM)33% (Jun 28, 5:53 PM)29.74 "Hg (Jun 27, 5:53 PM)
Average81 °F71%29.94 "Hg
* Reported Jun 18 4:53 PM — Jul 3 4:53 PM, Fayetteville, Weather by CustomWeather, © 2015

Note: Actual official high and low records may vary slightly from our data, if they occured in-between our weather recording intervals... More about our weather records

Advertising

Fayetteville weather history for previous 24 hours

 ConditionsComfort  
Time TempWeatherWind HumidityBarometerVisibility
4:53 PM
Fri, Jul 3
78 °FLight rain. Fog.5 mph90%29.88 "Hg4 mi
3:53 PM80 °FBroken clouds.6 mph81%29.88 "Hg10 mi
2:53 PM77 °FMore clouds than sun.5 mph90%29.91 "Hg8 mi
2:00 PM75 °FThundershowers. Fog.3 mph94%29.95 "Hg5 mi
1:00 PM78 °FOvercast.10 mph79%29.96 "Hg10 mi
11:53 AM76 °FOvercast.12 mph82%29.96 "Hg10 mi
11:00 AM76 °FOvercast.6 mph80%29.98 "Hg10 mi
10:01 AM74 °FLow clouds.9 mph85%29.98 "Hg10 mi
8:53 AM73 °FOvercast.5 mph88%29.96 "Hg10 mi
7:53 AM72 °FOvercast.6 mph87%29.95 "Hg10 mi
6:53 AM71 °FPassing clouds.5 mph87%29.94 "Hg10 mi
5:53 AM71 °FPassing clouds.5 mph87%29.93 "Hg10 mi
4:53 AM72 °FOvercast.7 mph84%29.92 "Hg10 mi
3:53 AM72 °FOvercast.7 mph84%29.90 "Hg10 mi
2:53 AM72 °FOvercast.13 mph84%29.88 "Hg10 mi
1:53 AM72 °FPassing clouds.9 mph87%29.89 "Hg10 mi
12:53 AM72 °FPassing clouds.12 mph87%29.90 "Hg10 mi
11:53 PM
Thu, Jul 2
73 °FClear.12 mph84%29.92 "Hg10 mi
10:53 PM74 °FClear.13 mph82%29.93 "Hg10 mi
9:53 PM76 °FClear.12 mph77%29.92 "Hg10 mi
8:53 PM77 °FSunny.16 mph77%29.85 "Hg10 mi
7:53 PM78 °FSunny.13 mph74%29.86 "Hg10 mi
6:53 PM82 °FPassing clouds.12 mph67%29.84 "Hg10 mi
Weather by CustomWeather, © 2015

See weather overviewHow to use our weather pages